Time,TemperatureF,DewpointF,PressureIn,WindDirection,WindDirectionDegrees,WindSpeedMPH,WindSpeedGustMPH,Humidity,HourlyPrecipIn,Conditions,Clouds,dailyrainin,SoftwareType,DateUTC
2013-03-28 00:02:00,30.2,25.0,30.39,NE,51,1.0,1.0,80,0.00,,,0.00,weatherlink.com 1.10,2013-03-28 05:02:00,
2013-03-28 00:18:00,30.4,25.0,30.40,NE,51,0.0,0.0,81,0.00,,,0.00,weatherlink.com 1.10,2013-03-28 05:18:00,
2013-03-28 00:33:00,30.2,25.0,30.39,NE,52,0.0,0.0,82,0.00,,,0.00,weatherlink.com 1.10,2013-03-28 05:33:00,
2013-03-28 00:48:00,30.1,25.0,30.40,NE,52,0.0,0.0,82,0.00,,,0.00,weatherlink.com 1.10,2013-03-28 05:48:00,
2013-03-28 01:03:00,29.6,26.0,30.40,NE,52,0.0,1.0,85,0.00,,,0.00,weatherlink.com 1.10,2013-03-28 06:03:00,
2013-03-28 01:18:00,29.4,25.0,30.40,NE,51,0.0,0.0,84,0.00,,,0.00,weatherlink.com 1.10,2013-03-28 06:18:00,
2013-03-28 01:33:00,29.1,25.0,30.40,NE,52,0.0,0.0,83,0.00,,,0.00,weatherlink.com 1.10,2013-03-28 06:33:00,
2013-03-28 01:48:00,28.6,24.0,30.40,NE,52,0.0,0.0,83,0.00,,,0.00,weatherlink.com 1.10,2013-03-28 06:48:00,
2013-03-28 02:03:00,28.5,24.0,30.40,NE,52,0.0,0.0,84,0.00,,,0.00,weatherlink.com 1.10,2013-03-28 07:03:00,
2013-03-28 02:18:00,28.0,24.0,30.40,NE,52,0.0,0.0,85,0.00,,,0.00,weatherlink.com 1.10,2013-03-28 07:18:00,
2013-03-28 02:33:00,27.3,24.0,30.40,NE,52,0.0,0.0,86,0.00,,,0.00,weatherlink.com 1.10,2013-03-28 07:33:00,
2013-03-28 02:48:00,26.9,24.0,30.40,NE,52,0.0,0.0,87,0.00,,,0.00,weatherlink.com 1.10,2013-03-28 07:48:00,
2013-03-28 03:03:00,26.4,23.0,30.40,NE,51,0.0,0.0,87,0.00,,,0.00,weatherlink.com 1.10,2013-03-28 08:03:00,
2013-03-28 03:18:00,26.1,23.0,30.40,NE,52,0.0,0.0,88,0.00,,,0.00,weatherlink.com 1.10,2013-03-28 08:18:00,
2013-03-28 03:33:00,26.1,23.0,30.40,NE,52,0.0,0.0,88,0.00,,,0.00,weatherlink.com 1.10,2013-03-28 08:33:00,
2013-03-28 03:50:00,25.6,23.0,30.39,NE,52,0.0,0.0,89,0.00,,,0.00,weatherlink.com 1.10,2013-03-28 08:50:00,
2013-03-28 04:03:00,25.4,23.0,30.40,NE,52,0.0,0.0,89,0.00,,,0.00,weatherlink.com 1.10,2013-03-28 09:03:00,
2013-03-28 04:18:00,25.2,22.0,30.40,NE,51,0.0,0.0,89,0.00,,,0.00,weatherlink.com 1.10,2013-03-28 09:18:00,
2013-03-28 04:33:00,24.9,22.0,30.39,NE,52,0.0,0.0,90,0.00,,,0.00,weatherlink.com 1.10,2013-03-28 09:33:00,
2013-03-28 04:48:00,24.8,22.0,30.40,NE,52,0.0,0.0,90,0.00,,,0.00,weatherlink.com 1.10,2013-03-28 09:48:00,
2013-03-28 05:03:00,24.5,22.0,30.40,NE,52,0.0,0.0,90,0.00,,,0.00,weatherlink.com 1.10,2013-03-28 10:03:00,
2013-03-28 05:18:00,24.4,22.0,30.40,NE,51,0.0,0.0,91,0.00,,,0.00,weatherlink.com 1.10,2013-03-28 10:18:00,
2013-03-28 05:33:00,23.9,21.0,30.40,NE,52,0.0,0.0,90,0.00,,,0.00,weatherlink.com 1.10,2013-03-28 10:33:00,
2013-03-28 05:48:00,24.0,22.0,30.41,NE,52,0.0,0.0,91,0.00,,,0.00,weatherlink.com 1.10,2013-03-28 10:48:00,
2013-03-28 06:03:00,23.9,21.0,30.41,NE,52,0.0,0.0,90,0.00,,,0.00,weatherlink.com 1.10,2013-03-28 11:03:00,
2013-03-28 06:18:00,23.7,22.0,30.42,NE,52,0.0,0.0,91,0.00,,,0.00,weatherlink.com 1.10,2013-03-28 11:18:00,
2013-03-28 06:33:00,23.6,21.0,30.42,NE,52,0.0,0.0,91,0.00,,,0.00,weatherlink.com 1.10,2013-03-28 11:33:00,
2013-03-28 06:48:00,23.4,21.0,30.42,NE,52,0.0,0.0,91,0.00,,,0.00,weatherlink.com 1.10,2013-03-28 11:48:00,
2013-03-28 07:03:00,23.7,22.0,30.43,NE,52,0.0,0.0,91,0.00,,,0.00,weatherlink.com 1.10,2013-03-28 12:03:00,
2013-03-28 07:18:00,24.9,23.0,30.43,NE,52,0.0,0.0,91,0.00,,,0.00,weatherlink.com 1.10,2013-03-28 12:18:00,
2013-03-28 07:33:00,27.1,24.0,30.43,NE,52,1.0,2.0,89,0.00,,,0.00,weatherlink.com 1.10,2013-03-28 12:33:00,
2013-03-28 07:48:00,30.2,26.0,30.43,NE,49,1.0,3.0,84,0.00,,,0.00,weatherlink.com 1.10,2013-03-28 12:48:00,
2013-03-28 08:03:00,33.2,27.0,30.43,WNW,299,5.0,6.0,77,0.00,,,0.00,weatherlink.com 1.10,2013-03-28 13:03:00,
2013-03-28 08:20:00,35.5,27.0,30.43,NW,305,5.0,7.0,70,0.00,,,0.00,weatherlink.com 1.10,2013-03-28 13:20:00,
2013-03-28 08:33:00,36.5,26.0,30.43,WNW,287,3.0,8.0,67,0.00,,,0.00,weatherlink.com 1.10,2013-03-28 13:33:00,
2013-03-28 08:49:00,37.6,26.0,30.43,NNW,334,7.0,10.0,64,0.00,,,0.00,weatherlink.com 1.10,2013-03-28 13:49:00,
2013-03-28 09:04:00,38.8,27.0,30.43,NNW,328,7.0,8.0,62,0.00,,,0.00,weatherlink.com 1.10,2013-03-28 14:04:00,
2013-03-28 09:19:00,40.0,26.0,30.43,NNW,329,6.0,9.0,58,0.00,,,0.00,weatherlink.com 1.10,2013-03-28 14:19:00,
2013-03-28 09:34:00,40.5,26.0,30.43,NW,320,2.0,8.0,57,0.00,,,0.00,weatherlink.com 1.10,2013-03-28 14:34:00,
2013-03-28 09:49:00,42.8,26.0,30.43,NNW,341,4.0,9.0,52,0.00,,,0.00,weatherlink.com 1.10,2013-03-28 14:49:00,
2013-03-28 10:04:00,43.3,25.0,30.43,NW,310,11.0,11.0,49,0.00,,,0.00,weatherlink.com 1.10,2013-03-28 15:04:00,
2013-03-28 10:19:00,44.3,26.0,30.43,North,9,7.0,11.0,49,0.00,,,0.00,weatherlink.com 1.10,2013-03-28 15:19:00,
2013-03-28 10:34:00,44.6,24.0,30.43,WNW,288,6.0,11.0,45,0.00,,,0.00,weatherlink.com 1.10,2013-03-28 15:34:00,
2013-03-28 10:49:00,44.1,24.0,30.43,NW,310,8.0,11.0,45,0.00,,,0.00,weatherlink.com 1.10,2013-03-28 15:49:00,
2013-03-28 11:04:00,45.4,24.0,30.43,WNW,299,7.0,16.0,43,0.00,,,0.00,weatherlink.com 1.10,2013-03-28 16:04:00,
2013-03-28 11:19:00,44.9,25.0,30.43,NW,320,9.0,10.0,45,0.00,,,0.00,weatherlink.com 1.10,2013-03-28 16:19:00,
2013-03-28 11:34:00,46.7,25.0,30.43,North,350,11.0,14.0,42,0.00,,,0.00,weatherlink.com 1.10,2013-03-28 16:34:00,
2013-03-28 11:49:00,45.8,24.0,30.42,West,279,6.0,9.0,42,0.00,,,0.00,weatherlink.com 1.10,2013-03-28 16:49:00,
2013-03-28 12:04:00,48.1,23.0,30.42,NNW,342,3.0,10.0,37,0.00,,,0.00,weatherlink.com 1.10,2013-03-28 17:04:00,
2013-03-28 12:19:00,47.7,25.0,30.42,West,268,6.0,10.0,41,0.00,,,0.00,weatherlink.com 1.10,2013-03-28 17:19:00,
2013-03-28 12:34:00,47.0,23.0,30.42,WNW,288,8.0,12.0,39,0.00,,,0.00,weatherlink.com 1.10,2013-03-28 17:34:00,
2013-03-28 12:49:00,48.0,24.0,30.42,NW,315,9.0,10.0,39,0.00,,,0.00,weatherlink.com 1.10,2013-03-28 17:49:00,
2013-03-28 13:04:00,50.7,24.0,30.41,North,1,3.0,11.0,36,0.00,,,0.00,weatherlink.com 1.10,2013-03-28 18:04:00,
2013-03-28 13:19:00,48.3,24.0,30.41,SSW,202,3.0,10.0,38,0.00,,,0.00,weatherlink.com 1.10,2013-03-28 18:19:00,
2013-03-28 13:34:00,47.8,24.0,30.41,NNW,334,10.0,11.0,39,0.00,,,0.00,weatherlink.com 1.10,2013-03-28 18:34:00,
2013-03-28 13:49:00,48.9,23.0,30.40,WSW,242,4.0,11.0,37,0.00,,,0.00,weatherlink.com 1.10,2013-03-28 18:49:00,
2013-03-28 14:04:00,50.1,23.0,30.40,NNW,336,3.0,14.0,35,0.00,,,0.00,weatherlink.com 1.10,2013-03-28 19:04:00,
2013-03-28 14:19:00,50.6,24.0,30.39,NNW,331,6.0,8.0,36,0.00,,,0.00,weatherlink.com 1.10,2013-03-28 19:19:00,
2013-03-28 14:34:00,52.3,25.0,30.38,NNW,340,2.0,10.0,34,0.00,,,0.00,weatherlink.com 1.10,2013-03-28 19:34:00,
2013-03-28 14:49:00,50.6,23.0,30.38,NNW,345,2.0,10.0,34,0.00,,,0.00,weatherlink.com 1.10,2013-03-28 19:49:00,
2013-03-28 15:04:00,51.7,24.0,30.37,West,269,5.0,9.0,34,0.00,,,0.00,weatherlink.com 1.10,2013-03-28 20:04:00,
2013-03-28 15:19:00,50.4,25.0,30.36,NW,315,5.0,8.0,37,0.00,,,0.00,weatherlink.com 1.10,2013-03-28 20:19:00,
2013-03-28 15:34:00,50.4,25.0,30.36,SSW,208,6.0,9.0,37,0.00,,,0.00,weatherlink.com 1.10,2013-03-28 20:34:00,
2013-03-28 15:49:00,51.0,24.0,30.36,SSW,210,6.0,11.0,35,0.00,,,0.00,weatherlink.com 1.10,2013-03-28 20:49:00,
2013-03-28 16:04:00,53.1,25.0,30.36,NW,326,6.0,12.0,33,0.00,,,0.00,weatherlink.com 1.10,2013-03-28 21:04:00,
2013-03-28 16:19:00,52.3,26.0,30.35,WNW,300,8.0,11.0,36,0.00,,,0.00,weatherlink.com 1.10,2013-03-28 21:19:00,
2013-03-28 16:34:00,51.2,24.0,30.35,ENE,64,3.0,7.0,35,0.00,,,0.00,weatherlink.com 1.10,2013-03-28 21:34:00,
2013-03-28 16:49:00,52.0,24.0,30.35,WSW,238,1.0,5.0,34,0.00,,,0.00,weatherlink.com 1.10,2013-03-28 21:49:00,
2013-03-28 17:04:00,50.1,24.0,30.35,NE,44,9.0,11.0,36,0.00,,,0.00,weatherlink.com 1.10,2013-03-28 22:04:00,
2013-03-28 17:19:00,49.6,24.0,30.35,NE,51,6.0,9.0,37,0.00,,,0.00,weatherlink.com 1.10,2013-03-28 22:19:00,
2013-03-28 17:34:00,51.8,25.0,30.35,North,355,8.0,11.0,35,0.00,,,0.00,weatherlink.com 1.10,2013-03-28 22:34:00,
2013-03-28 17:49:00,48.5,23.0,30.35,NNE,31,5.0,8.0,37,0.00,,,0.00,weatherlink.com 1.10,2013-03-28 22:49:00,
2013-03-28 18:04:00,47.9,23.0,30.35,NE,39,6.0,9.0,38,0.00,,,0.00,weatherlink.com 1.10,2013-03-28 23:04:00,
2013-03-28 18:19:00,48.5,24.0,30.35,NNE,29,7.0,7.0,38,0.00,,,0.00,weatherlink.com 1.10,2013-03-28 23:19:00,
2013-03-28 18:34:00,47.5,23.0,30.35,NE,47,3.0,8.0,39,0.00,,,0.00,weatherlink.com 1.10,2013-03-28 23:34:00,
2013-03-28 18:49:00,46.1,23.0,30.36,NE,49,5.0,7.0,40,0.00,,,0.00,weatherlink.com 1.10,2013-03-28 23:49:00,
2013-03-28 19:04:00,44.8,23.0,30.36,NE,56,3.0,6.0,42,0.00,,,0.00,weatherlink.com 1.10,2013-03-29 00:04:00,
2013-03-28 19:19:00,44.1,23.0,30.36,ENE,58,3.0,6.0,43,0.00,,,0.00,weatherlink.com 1.10,2013-03-29 00:19:00,
2013-03-28 19:34:00,43.6,22.0,30.36,NE,47,5.0,7.0,43,0.00,,,0.00,weatherlink.com 1.10,2013-03-29 00:34:00,
2013-03-28 19:49:00,42.8,23.0,30.36,NE,51,1.0,5.0,45,0.00,,,0.00,weatherlink.com 1.10,2013-03-29 00:49:00,
2013-03-28 20:04:00,41.2,23.0,30.37,NE,51,0.0,1.0,48,0.00,,,0.00,weatherlink.com 1.10,2013-03-29 01:04:00,
2013-03-28 20:19:00,38.7,24.0,30.38,NE,51,0.0,1.0,57,0.00,,,0.00,weatherlink.com 1.10,2013-03-29 01:19:00,
2013-03-28 20:35:00,38.1,24.0,30.38,NE,51,0.0,1.0,57,0.00,,,0.00,weatherlink.com 1.10,2013-03-29 01:35:00,
2013-03-28 20:50:00,37.1,25.0,30.38,NE,51,0.0,0.0,61,0.00,,,0.00,weatherlink.com 1.10,2013-03-29 01:50:00,
2013-03-28 21:05:00,35.5,24.0,30.38,NE,51,0.0,1.0,64,0.00,,,0.00,weatherlink.com 1.10,2013-03-29 02:05:00,
2013-03-28 21:20:00,34.0,24.0,30.39,South,172,0.0,6.0,67,0.00,,,0.00,weatherlink.com 1.10,2013-03-29 02:20:00,
2013-03-28 21:35:00,34.1,25.0,30.39,South,172,0.0,3.0,68,0.00,,,0.00,weatherlink.com 1.10,2013-03-29 02:35:00,
2013-03-28 21:50:00,33.7,24.0,30.39,South,172,0.0,2.0,68,0.00,,,0.00,weatherlink.com 1.10,2013-03-29 02:50:00,
2013-03-28 22:05:00,32.7,25.0,30.39,SE,144,0.0,0.0,72,0.00,,,0.00,weatherlink.com 1.10,2013-03-29 03:05:00,
2013-03-28 22:20:00,32.6,24.0,30.39,SE,144,0.0,0.0,72,0.00,,,0.00,weatherlink.com 1.10,2013-03-29 03:20:00,
2013-03-28 22:35:00,32.7,24.0,30.39,SE,126,0.0,2.0,70,0.00,,,0.00,weatherlink.com 1.10,2013-03-29 03:35:00,
2013-03-28 22:50:00,32.5,24.0,30.39,SE,126,0.0,2.0,72,0.00,,,0.00,weatherlink.com 1.10,2013-03-29 03:50:00,
2013-03-28 23:05:00,30.9,25.0,30.39,SE,126,0.0,0.0,78,0.00,,,0.00,weatherlink.com 1.10,2013-03-29 04:05:00,
2013-03-28 23:20:00,30.1,24.0,30.39,SE,126,1.0,2.0,79,0.00,,,0.00,weatherlink.com 1.10,2013-03-29 04:20:00,
2013-03-28 23:35:00,30.7,25.0,30.39,SE,126,0.0,0.0,79,0.00,,,0.00,weatherlink.com 1.10,2013-03-29 04:35:00,
2013-03-28 23:50:00,30.8,25.0,30.39,SE,126,0.0,1.0,78,0.00,,,0.00,weatherlink.com 1.10,2013-03-29 04:50:00,